Lid_Strength_Index
1 1 1 0 0 1 1 0 0 0 0 0 1 1 1 1 1 1 1 3 1 -1 -2 -2 -2 -2 -2 -1 -1 -1 -0 0 0 0 -0 0 0 1 1 1 1 1 2
1 2 1 1 1 1 0 0 0 0 0 0 1 1 2 2 2 1 1 1 2 0 -1 -2 -2 -2 -2 -2 -2 -1 -1 -1 0 0 -0 -0 0 0 1 1 1 1 2
1 1 2 2 1 1 1 1 1 1 1 1 1 1 1 2 2 2 1 1 1 2 1 -1 -1 -2 -2 -2 -2 -2 -2 -1 -1 -0 -1 -0 0 0 1 1 1 1 2
1 1 1 1 1 2 2 2 2 2 2 1 1 1 1 1 1 1 1 1 2 2 2 1 -1 -1 -1 -2 -2 -2 -2 -2 -2 -1 -1 -1 -0 0 0 1 1 2 2
1 1 1 1 1 2 2 2 2 2 2 2 2 2 2 2 2 2 1 1 1 1 1 2 1 1 -1 -1 -2 -2 -2 -2 -2 -2 -1 -1 -1 -0 -0 1 1 1 1
-0 0 1 1 1 2 2 2 2 2 2 2 3 3 2 2 2 2 2 1 1 1 1 1 2 2 1 -1 -1 -2 -2 -2 -2 -2 -2 -2 -1 -1 -0 0 0 0 1
-0 0 0 1 1 2 2 2 2 3 3 3 4 3 3 2 3 2 2 1 1 1 1 2 2 1 1 1 -1 -1 -2 -2 -1 -2 -2 -2 -2 -1 -1 -1 -0 -0 -0
-0 -0 -0 0 0 2 2 2 3 3 3 2 4 5 5 3 3 2 2 2 2 2 2 2 2 2 2 1 1 -1 -1 -2 -2 -2 -2 -2 -2 -2 -2 -1 -1 -1 -1
1 0 0 0 0 1 1 1 2 2 3 2 3 3 6 7 5 3 3 2 2 1 2 2 2 2 2 2 2 2 0 -1 -2 -2 -2 -2 -2 -2 -2 -2 -2 -2 -2
1 1 1 1 1 1 1 1 0 1 2 3 3 3 2 2 5 6 4 4 3 2 2 2 2 3 3 3 4 5 4 2 1 -0 -1 -2 -2 -2 -2 -2 -2 -2 -2
-1 -1 -0 -0 0 0 0 0 1 1 2 2 2 2 3 3 3 4 6 4 5 3 3 2 2 2 3 3 3 4 5 4 3 3 1 0 -0 -2 -2 -2 -2 -2 -2
1 1 1 0 -0 0 1 0 0 1 1 2 2 2 2 4 4 5 5 4 4 3 4 3 3 3 3 3 4 6 5 4 4 4 3 2 1 -0 -1 -2 -2 -2 -2
4 4 4 3 2 1 -0 0 1 1 1 1 2 2 2 2 2 3 4 4 4 3 3 3 3 3 3 3 3 7 7 5 4 4 3 3 2 2 0 -1 -1 -1 -1
8 7 7 5 5 4 2 0 0 1 1 1 1 1 1 1 2 2 3 4 5 4 3 3 3 3 3 2 3 7 4 7 5 4 4 3 3 3 2 2 1 0 -0
10 9 8 8 7 6 4 3 1 1 1 1 1 1 1 1 1 1 2 3 4 7 6 3 3 3 3 3 4 3 4 6 6 5 4 4 4 3 3 2 2 1 1
11 11 10 9 8 7 6 5 4 3 1 1 1 1 1 1 1 1 1 2 2 4 6 3 2 3 4 4 4 4 3 7 7 6 5 5 5 4 3 3 2 2 1
13 12 11 10 9 8 7 7 6 4 4 3 2 1 1 1 1 1 1 2 2 2 5 3 2 2 4 4 5 5 5 5 5 8 6 6 5 5 4 4 4 3 3
13 13 12 11 10 9 8 7 7 6 5 6 5 3 3 2 2 1 2 2 2 2 3 5 3 3 4 3 3 5 7 8 7 8 7 6 6 6 6 5 5 5 4
15 14 14 13 12 10 9 8 8 8 8 7 7 6 5 3 3 3 2 2 2 2 2 3 4 2 2 9 9 11 10 11 10 9 8 7 7 6 6 6 6 6 6
16 16 15 14 13 12 10 9 9 9 9 8 8 7 7 6 6 4 5 4 4 2 2 3 4 3 9 13 13 12 12 13 13 12 10 10 9 8 7 6 6 7 7
17 16 16 16 15 12 11 10 10 9 9 9 9 8 7 8 9 8 7 6 5 6 5 5 4 10 12 13 12 11 10 12 14 14 13 12 12 11 9 8 9 9 8
18 17 17 16 15 13 11 10 10 10 10 10 9 8 8 9 8 8 7 7 7 7 7 7 7 9 10 10 11 12 12 13 12 13 13 12 12 12 12 10 8 7 7
17 17 16 15 14 13 11 10 10 10 10 10 9 8 8 7 8 7 7 7 7 7 7 6 7 7 10 9 11 12 13 12 11 12 12 13 13 13 13 12 8 7 7
17 16 15 13 13 12 10 10 10 10 10 9 9 8 8 8 7 8 8 8 8 8 8 7 7 7 7 6 7 10 10 12 14 14 13 13 14 13 13 12 9 7 7
16 15 14 14 14 14 12 11 10 11 11 11 10 9 8 8 8 7 8 10 10 9 8 8 7 7 8 8 8 11 12 13 13 14 13 13 14 15 14 13 13 8 7
16 15 15 15 15 15 14 12 12 12 12 11 10 10 9 8 8 8 9 9 10 10 9 9 11 9 8 9 9 8 10 11 13 14 13 13 15 14 15 15 14 13 10